Location: *
(51.0333°S, 178.4667°E)
Time: 11:03:14
(UTC+00:00)

Cosmos 2266 Rocket - Pass Details

Date: 15 November 2019
Orbit: 935 x 1008 km, 82.9° (Epoch: 15 December)

Event Time Altitude Azimuth Distance (km) Brightness Sun altitude
Rises 08:55:11 0° 189° (S) 3,636 8.0 -10.6°
Reaches altitude 10° 08:57:43 10° 186° (S) 2,686 7.2 -10.9°
Maximum altitude 09:03:50 68° 102° (ESE) 1,024 4.0 -11.5°
Enters shadow 09:09:08 14° 21° (NNE) 2,389 5.5 -12.0°
